Year,Month,Day,Hour,Minute,Value (Times are PST for temperature in C)
2018,06,19,00,00,19.60
2018,06,19,00,01,19.50
2018,06,19,00,02,19.50
2018,06,19,00,03,19.40
2018,06,19,00,04,19.40
2018,06,19,00,05,19.30
2018,06,19,00,06,19.30
2018,06,19,00,07,19.20
2018,06,19,00,08,19.20
2018,06,19,00,09,19.10
2018,06,19,00,10,19.10
2018,06,19,00,11,19.00
2018,06,19,00,12,19.00
2018,06,19,00,13,18.90
2018,06,19,00,14,18.90
2018,06,19,00,15,18.90
2018,06,19,00,16,18.90
2018,06,19,00,17,18.80
2018,06,19,00,18,18.80
2018,06,19,00,19,18.80
2018,06,19,00,20,18.80
2018,06,19,00,21,18.80
2018,06,19,00,22,18.80
2018,06,19,00,23,18.70
2018,06,19,00,24,18.80
2018,06,19,00,25,18.80
2018,06,19,00,26,18.80
2018,06,19,00,27,18.80
2018,06,19,00,28,18.90
2018,06,19,00,29,18.90
2018,06,19,00,30,18.90
2018,06,19,00,31,18.90
2018,06,19,00,32,18.90
2018,06,19,00,33,18.90
2018,06,19,00,34,18.90
2018,06,19,00,35,18.90
2018,06,19,00,36,18.80
2018,06,19,00,37,18.80
2018,06,19,00,38,18.80
2018,06,19,00,39,18.80
2018,06,19,00,40,18.70
2018,06,19,00,41,18.70
2018,06,19,00,42,18.70
2018,06,19,00,43,18.60
2018,06,19,00,44,18.60
2018,06,19,00,45,18.60
2018,06,19,00,46,18.60
2018,06,19,00,47,18.60
2018,06,19,00,48,18.50
2018,06,19,00,49,18.50
2018,06,19,00,50,18.50
2018,06,19,00,51,18.40
2018,06,19,00,52,18.40
2018,06,19,00,53,18.40
2018,06,19,00,54,18.40
2018,06,19,00,55,18.40
2018,06,19,00,56,18.40
2018,06,19,00,57,18.40
2018,06,19,00,58,18.40
2018,06,19,00,59,18.50
2018,06,19,01,00,18.50
2018,06,19,01,01,18.50
2018,06,19,01,02,18.60
2018,06,19,01,03,18.60
2018,06,19,01,04,18.60
2018,06,19,01,05,18.60
2018,06,19,01,06,18.60
2018,06,19,01,07,18.60
2018,06,19,01,08,18.60
2018,06,19,01,09,18.70
2018,06,19,01,10,18.80
2018,06,19,01,11,19.00
2018,06,19,01,12,19.10
2018,06,19,01,13,19.20
2018,06,19,01,14,19.20
2018,06,19,01,15,19.20
2018,06,19,01,16,19.20
2018,06,19,01,17,19.10
2018,06,19,01,18,19.20
2018,06,19,01,19,19.20
2018,06,19,01,20,19.10
2018,06,19,01,21,19.10
2018,06,19,01,22,19.00
2018,06,19,01,23,19.00
2018,06,19,01,24,18.90
2018,06,19,01,25,18.90
2018,06,19,01,26,18.90
2018,06,19,01,27,18.90
2018,06,19,01,28,19.00
2018,06,19,01,29,19.10
2018,06,19,01,30,19.20
2018,06,19,01,31,19.20
2018,06,19,01,32,19.20
2018,06,19,01,33,19.20
2018,06,19,01,34,19.20
2018,06,19,01,35,19.10
2018,06,19,01,36,19.00
2018,06,19,01,37,19.00
2018,06,19,01,38,19.00
2018,06,19,01,39,19.00
2018,06,19,01,40,19.00
2018,06,19,01,41,19.00
2018,06,19,01,42,19.00
2018,06,19,01,43,18.90
2018,06,19,01,44,18.90
2018,06,19,01,45,19.00
2018,06,19,01,46,19.00
2018,06,19,01,47,19.00
2018,06,19,01,48,19.00
2018,06,19,01,49,19.00
2018,06,19,01,50,18.90
2018,06,19,01,51,18.90
2018,06,19,01,52,18.90
2018,06,19,01,53,18.80
2018,06,19,01,54,18.90
2018,06,19,01,55,18.90
2018,06,19,01,56,18.80
2018,06,19,01,57,18.80
2018,06,19,01,58,18.80
2018,06,19,01,59,18.80
2018,06,19,02,00,18.80
2018,06,19,02,01,18.80
2018,06,19,02,02,18.80
2018,06,19,02,03,18.80
2018,06,19,02,04,18.80
2018,06,19,02,05,18.70
2018,06,19,02,06,18.70
2018,06,19,02,07,18.70
2018,06,19,02,08,18.70
2018,06,19,02,09,18.70
2018,06,19,02,10,18.60
2018,06,19,02,11,18.60
2018,06,19,02,12,18.60
2018,06,19,02,13,18.50
2018,06,19,02,14,18.50
2018,06,19,02,15,18.40
2018,06,19,02,16,18.30
2018,06,19,02,17,18.30
2018,06,19,02,18,18.20
2018,06,19,02,19,18.10
2018,06,19,02,20,18.10
2018,06,19,02,21,18.00
2018,06,19,02,22,17.90
2018,06,19,02,23,17.90
2018,06,19,02,24,17.80
2018,06,19,02,25,17.70
2018,06,19,02,26,17.70
2018,06,19,02,27,17.60
2018,06,19,02,28,17.60
2018,06,19,02,29,17.50
2018,06,19,02,30,17.50
2018,06,19,02,31,17.50
2018,06,19,02,32,17.40
2018,06,19,02,33,17.40
2018,06,19,02,34,17.40
2018,06,19,02,35,17.40
2018,06,19,02,36,17.40
2018,06,19,02,37,17.30
2018,06,19,02,38,17.30
2018,06,19,02,39,17.30
2018,06,19,02,40,17.30
2018,06,19,02,41,17.30
2018,06,19,02,42,17.30
2018,06,19,02,43,17.30
2018,06,19,02,44,17.30
2018,06,19,02,45,17.30
2018,06,19,02,46,17.20
2018,06,19,02,47,17.20
2018,06,19,02,48,17.20
2018,06,19,02,49,17.10
2018,06,19,02,50,17.10
2018,06,19,02,51,17.10
2018,06,19,02,52,17.10
2018,06,19,02,53,17.00
2018,06,19,02,54,17.00
2018,06,19,02,55,17.00
2018,06,19,02,56,17.00
2018,06,19,02,57,17.00
2018,06,19,02,58,17.00
2018,06,19,02,59,16.90
2018,06,19,03,00,16.90
2018,06,19,03,01,16.90
2018,06,19,03,02,16.90
2018,06,19,03,03,16.90
2018,06,19,03,04,16.90
2018,06,19,03,05,16.80
2018,06,19,03,06,16.80
2018,06,19,03,07,16.80
2018,06,19,03,08,16.80
2018,06,19,03,09,16.80
2018,06,19,03,10,16.80
2018,06,19,03,11,16.70
2018,06,19,03,12,16.70
2018,06,19,03,13,16.70
2018,06,19,03,14,16.70
2018,06,19,03,15,16.70
2018,06,19,03,16,16.70
2018,06,19,03,17,16.60
2018,06,19,03,18,16.60
2018,06,19,03,19,16.60
2018,06,19,03,20,16.60
2018,06,19,03,21,16.50
2018,06,19,03,22,16.50
2018,06,19,03,23,16.40
2018,06,19,03,24,16.40
2018,06,19,03,25,16.40
2018,06,19,03,26,16.30
2018,06,19,03,27,16.30
2018,06,19,03,28,16.30
2018,06,19,03,29,16.20
2018,06,19,03,30,16.20
2018,06,19,03,31,16.20
2018,06,19,03,32,16.20
2018,06,19,03,33,16.20
2018,06,19,03,34,16.20
2018,06,19,03,35,16.20
2018,06,19,03,36,16.20
2018,06,19,03,37,16.20
2018,06,19,03,38,16.30
2018,06,19,03,39,16.30
2018,06,19,03,40,16.60
2018,06,19,03,41,16.80
2018,06,19,03,42,16.90
2018,06,19,03,43,17.10
2018,06,19,03,44,17.20
2018,06,19,03,45,17.30
2018,06,19,03,46,17.40
2018,06,19,03,47,17.40
2018,06,19,03,48,17.50
2018,06,19,03,49,17.50
2018,06,19,03,50,17.50
2018,06,19,03,51,17.60
2018,06,19,03,52,17.60
2018,06,19,03,53,17.60
2018,06,19,03,54,17.60
2018,06,19,03,55,17.60
2018,06,19,03,56,17.60
2018,06,19,03,57,17.50
2018,06,19,03,58,17.50
2018,06,19,03,59,17.50
2018,06,19,04,00,17.50
2018,06,19,04,01,17.40
2018,06,19,04,02,17.40
2018,06,19,04,03,17.40
2018,06,19,04,04,17.30
2018,06,19,04,05,17.30
2018,06,19,04,06,17.30
2018,06,19,04,07,17.30
2018,06,19,04,08,17.20
2018,06,19,04,09,17.20
2018,06,19,04,10,17.20
2018,06,19,04,11,17.20
2018,06,19,04,12,17.10
2018,06,19,04,13,17.10
2018,06,19,04,14,17.10
2018,06,19,04,15,17.00
2018,06,19,04,16,17.00
2018,06,19,04,17,17.00
2018,06,19,04,18,17.00
2018,06,19,04,19,16.90
2018,06,19,04,20,16.90
2018,06,19,04,21,16.90
2018,06,19,04,22,16.90
2018,06,19,04,23,16.90
2018,06,19,04,24,16.80
2018,06,19,04,25,16.80
2018,06,19,04,26,16.80
2018,06,19,04,27,16.80
2018,06,19,04,28,16.70
2018,06,19,04,29,16.70
2018,06,19,04,30,16.70
2018,06,19,04,31,16.70
2018,06,19,04,32,16.60
2018,06,19,04,33,16.60
2018,06,19,04,34,16.60
2018,06,19,04,35,16.60
2018,06,19,04,36,16.60
2018,06,19,04,37,16.60
2018,06,19,04,38,16.60
2018,06,19,04,39,16.50
2018,06,19,04,40,16.50
2018,06,19,04,41,16.50
2018,06,19,04,42,16.50
2018,06,19,04,43,16.40
2018,06,19,04,44,16.40
2018,06,19,04,45,16.30
2018,06,19,04,46,16.30
2018,06,19,04,47,16.20
2018,06,19,04,48,16.20
2018,06,19,04,49,16.20
2018,06,19,04,50,16.10
2018,06,19,04,51,16.10
2018,06,19,04,52,16.00
2018,06,19,04,53,16.00
2018,06,19,04,54,15.90
2018,06,19,04,55,15.90
2018,06,19,04,56,15.90
2018,06,19,04,57,15.80
2018,06,19,04,58,15.80
2018,06,19,04,59,15.80
2018,06,19,05,00,15.70
2018,06,19,05,01,15.70
2018,06,19,05,02,15.70
2018,06,19,05,03,15.60
2018,06,19,05,04,15.60
2018,06,19,05,05,15.60
2018,06,19,05,06,15.50
2018,06,19,05,07,15.50
2018,06,19,05,08,15.40
2018,06,19,05,09,15.40
2018,06,19,05,10,15.40
2018,06,19,05,11,15.30
2018,06,19,05,12,15.30
2018,06,19,05,13,15.30
2018,06,19,05,14,15.30
2018,06,19,05,15,15.30
2018,06,19,05,16,15.30
2018,06,19,05,17,15.20
2018,06,19,05,18,15.20
2018,06,19,05,19,15.20
2018,06,19,05,20,15.20
2018,06,19,05,21,15.20
2018,06,19,05,22,15.20
2018,06,19,05,23,15.10
2018,06,19,05,24,15.10
2018,06,19,05,25,15.10
2018,06,19,05,26,15.10
2018,06,19,05,27,15.00
2018,06,19,05,28,15.00
2018,06,19,05,29,15.00
2018,06,19,05,30,15.00
2018,06,19,05,31,15.00
2018,06,19,05,32,14.90
2018,06,19,05,33,14.90
2018,06,19,05,34,14.90
2018,06,19,05,35,14.80
2018,06,19,05,36,14.80
2018,06,19,05,37,14.80
2018,06,19,05,38,14.80
2018,06,19,05,39,14.80
2018,06,19,05,40,14.70
2018,06,19,05,41,14.70
2018,06,19,05,42,14.70
2018,06,19,05,43,14.70
2018,06,19,05,44,14.70
2018,06,19,05,45,14.70
2018,06,19,05,46,14.70
2018,06,19,05,47,14.70
2018,06,19,05,48,14.70
2018,06,19,05,49,14.70
2018,06,19,05,50,14.70
2018,06,19,05,51,14.70
2018,06,19,05,52,14.60
2018,06,19,05,53,14.60
2018,06,19,05,54,14.50
2018,06,19,05,55,14.50
2018,06,19,05,56,14.50
2018,06,19,05,57,14.50
2018,06,19,05,58,14.50
2018,06,19,05,59,14.50
2018,06,19,06,00,14.50
2018,06,19,06,01,14.50
2018,06,19,06,02,14.60
2018,06,19,06,03,14.60
2018,06,19,06,04,14.50
2018,06,19,06,05,14.50
2018,06,19,06,06,14.50
2018,06,19,06,07,14.50
2018,06,19,06,08,14.50
2018,06,19,06,09,14.50
2018,06,19,06,10,14.50
2018,06,19,06,11,14.50
2018,06,19,06,12,14.50
2018,06,19,06,13,14.60
2018,06,19,06,14,14.60
2018,06,19,06,15,14.60
2018,06,19,06,16,14.60
2018,06,19,06,17,14.60
2018,06,19,06,18,14.60
2018,06,19,06,19,14.60
2018,06,19,06,20,14.60
2018,06,19,06,21,14.60
2018,06,19,06,22,14.60
2018,06,19,06,23,14.60
2018,06,19,06,24,14.60
2018,06,19,06,25,14.60
2018,06,19,06,26,14.60
2018,06,19,06,27,14.60
2018,06,19,06,28,14.60
2018,06,19,06,29,14.70
2018,06,19,06,30,14.70
2018,06,19,06,31,14.70
2018,06,19,06,32,14.80
2018,06,19,06,33,14.80
2018,06,19,06,34,14.90
2018,06,19,06,35,15.00
2018,06,19,06,36,15.10
2018,06,19,06,37,15.20
2018,06,19,06,38,15.30
2018,06,19,06,39,15.40
2018,06,19,06,40,15.50
2018,06,19,06,41,15.60
2018,06,19,06,42,15.70
2018,06,19,06,43,15.80
2018,06,19,06,44,15.90
2018,06,19,06,45,16.00
2018,06,19,06,46,16.10
2018,06,19,06,47,16.20
2018,06,19,06,48,16.20
2018,06,19,06,49,16.30
2018,06,19,06,50,16.40
2018,06,19,06,51,16.40
2018,06,19,06,52,16.50
2018,06,19,06,53,16.60
2018,06,19,06,54,16.70
2018,06,19,06,55,16.70
2018,06,19,06,56,16.80
2018,06,19,06,57,16.90
2018,06,19,06,58,17.00
2018,06,19,06,59,17.00
2018,06,19,07,00,17.10
2018,06,19,07,01,17.10
2018,06,19,07,02,17.20
2018,06,19,07,03,17.20
2018,06,19,07,04,17.30
2018,06,19,07,05,17.40
2018,06,19,07,06,17.50
2018,06,19,07,07,17.60
2018,06,19,07,08,17.70
2018,06,19,07,09,17.70
2018,06,19,07,10,17.80
2018,06,19,07,11,17.90
2018,06,19,07,12,17.90
2018,06,19,07,13,18.00
2018,06,19,07,14,18.00
2018,06,19,07,15,18.00
2018,06,19,07,16,18.00
2018,06,19,07,17,18.00
2018,06,19,07,18,18.10
2018,06,19,07,19,18.10
2018,06,19,07,20,18.10
2018,06,19,07,21,18.10
2018,06,19,07,22,18.10
2018,06,19,07,23,18.10
2018,06,19,07,24,18.10
2018,06,19,07,25,18.00
2018,06,19,07,26,17.90
2018,06,19,07,27,17.90
2018,06,19,07,28,17.80
2018,06,19,07,29,17.80
2018,06,19,07,30,17.80
2018,06,19,07,31,17.70
2018,06,19,07,32,17.70
2018,06,19,07,33,17.70
2018,06,19,07,34,17.70
2018,06,19,07,35,17.70
2018,06,19,07,36,17.70
2018,06,19,07,37,17.70
2018,06,19,07,38,17.80
2018,06,19,07,39,17.80
2018,06,19,07,40,17.80
2018,06,19,07,41,17.80
2018,06,19,07,42,17.80
2018,06,19,07,43,17.80
2018,06,19,07,44,17.80
2018,06,19,07,45,17.80
2018,06,19,07,46,17.80
2018,06,19,07,47,17.80
2018,06,19,07,48,17.90
2018,06,19,07,49,17.90
2018,06,19,07,50,17.90
2018,06,19,07,51,17.90
2018,06,19,07,52,18.00
2018,06,19,07,53,18.00
2018,06,19,07,54,18.00
2018,06,19,07,55,18.10
2018,06,19,07,56,18.10
2018,06,19,07,57,18.10
2018,06,19,07,58,18.10
2018,06,19,07,59,18.10
2018,06,19,08,00,18.10
2018,06,19,08,01,18.10
2018,06,19,08,02,18.10
2018,06,19,08,03,18.10
2018,06,19,08,04,18.10
2018,06,19,08,05,18.20
2018,06,19,08,06,18.20
2018,06,19,08,07,18.20
2018,06,19,08,08,18.20
2018,06,19,08,09,18.30
2018,06,19,08,10,18.30
2018,06,19,08,11,18.40
2018,06,19,08,12,18.50
2018,06,19,08,13,18.60
2018,06,19,08,14,18.70
2018,06,19,08,15,18.80
2018,06,19,08,16,18.90
2018,06,19,08,17,18.90
2018,06,19,08,18,18.90
2018,06,19,08,19,18.90
2018,06,19,08,20,19.00
2018,06,19,08,21,19.00
2018,06,19,08,22,19.10
2018,06,19,08,23,19.20
2018,06,19,08,24,19.30
2018,06,19,08,25,19.30
2018,06,19,08,26,19.50
2018,06,19,08,27,19.60
2018,06,19,08,28,19.60
2018,06,19,08,29,19.60
2018,06,19,08,30,19.70
2018,06,19,08,31,19.70
2018,06,19,08,32,19.70
2018,06,19,08,33,19.80
2018,06,19,08,34,19.90
2018,06,19,08,35,20.10
2018,06,19,08,36,20.30
2018,06,19,08,37,20.40
2018,06,19,08,38,20.50
2018,06,19,08,39,20.60
2018,06,19,08,40,20.60
2018,06,19,08,41,20.60
2018,06,19,08,42,20.50
2018,06,19,08,43,20.60
2018,06,19,08,44,20.60
2018,06,19,08,45,20.60
2018,06,19,08,46,20.70
2018,06,19,08,47,20.70
2018,06,19,08,48,20.70
2018,06,19,08,49,20.80
2018,06,19,08,50,20.70
2018,06,19,08,51,20.70
2018,06,19,08,52,20.60
2018,06,19,08,53,20.60
2018,06,19,08,54,20.60
2018,06,19,08,55,20.60
2018,06,19,08,56,20.70
2018,06,19,08,57,20.70
2018,06,19,08,58,20.60
2018,06,19,08,59,20.60
2018,06,19,09,00,20.50
2018,06,19,09,01,20.40
2018,06,19,09,02,20.30
2018,06,19,09,03,20.20
2018,06,19,09,04,20.10
2018,06,19,09,05,20.10
2018,06,19,09,06,20.00
2018,06,19,09,07,20.00
2018,06,19,09,08,19.90
2018,06,19,09,09,20.00
2018,06,19,09,10,20.10
2018,06,19,09,11,20.10
2018,06,19,09,12,20.10
2018,06,19,09,13,20.20
2018,06,19,09,14,20.30
2018,06,19,09,15,20.40
2018,06,19,09,16,20.40
2018,06,19,09,17,20.50
2018,06,19,09,18,20.60
2018,06,19,09,19,20.70
2018,06,19,09,20,20.70
2018,06,19,09,21,20.80
2018,06,19,09,22,20.80
2018,06,19,09,23,20.80
2018,06,19,09,24,20.90
2018,06,19,09,25,20.90
2018,06,19,09,26,21.00
2018,06,19,09,27,21.00
2018,06,19,09,28,21.10
2018,06,19,09,29,21.20
2018,06,19,09,30,21.30
2018,06,19,09,31,21.30
2018,06,19,09,32,21.30
2018,06,19,09,33,21.30
2018,06,19,09,34,21.40
2018,06,19,09,35,21.40
2018,06,19,09,36,21.40
2018,06,19,09,37,21.40
2018,06,19,09,38,21.40
2018,06,19,09,39,21.50
2018,06,19,09,40,21.50
2018,06,19,09,41,21.40
2018,06,19,09,42,21.40
2018,06,19,09,43,21.50
2018,06,19,09,44,21.50
2018,06,19,09,45,21.60
2018,06,19,09,46,21.50
2018,06,19,09,47,21.40
2018,06,19,09,48,21.50
2018,06,19,09,49,21.50
2018,06,19,09,50,21.60
2018,06,19,09,51,21.60
2018,06,19,09,52,21.70
2018,06,19,09,53,21.80
2018,06,19,09,54,21.80
2018,06,19,09,55,21.80
2018,06,19,09,56,21.80
2018,06,19,09,57,21.80
2018,06,19,09,58,21.80
2018,06,19,09,59,21.80
2018,06,19,10,00,21.80
2018,06,19,10,01,21.80
2018,06,19,10,02,21.90
2018,06,19,10,03,22.00
2018,06,19,10,04,22.10
2018,06,19,10,05,22.20
2018,06,19,10,06,22.30
2018,06,19,10,07,22.30
2018,06,19,10,08,22.30
2018,06,19,10,09,22.30
2018,06,19,10,10,22.30
2018,06,19,10,11,22.20
2018,06,19,10,12,22.20
2018,06,19,10,13,22.20
2018,06,19,10,14,22.20
2018,06,19,10,15,22.20
2018,06,19,10,16,22.30
2018,06,19,10,17,22.30
2018,06,19,10,18,22.30
2018,06,19,10,19,22.30
2018,06,19,10,20,22.30
2018,06,19,10,21,22.20
2018,06,19,10,22,22.10
2018,06,19,10,23,22.00
2018,06,19,10,24,22.00
2018,06,19,10,25,22.10
2018,06,19,10,26,22.10
2018,06,19,10,27,22.10
2018,06,19,10,28,22.10
2018,06,19,10,29,22.00
2018,06,19,10,30,22.00
2018,06,19,10,31,22.00
2018,06,19,10,32,22.00
2018,06,19,10,33,22.10
2018,06,19,10,34,22.10
2018,06,19,10,35,22.10
2018,06,19,10,36,22.20
2018,06,19,10,37,22.20
2018,06,19,10,38,22.30
2018,06,19,10,39,22.40
2018,06,19,10,40,22.40
2018,06,19,10,41,22.40
2018,06,19,10,42,22.40
2018,06,19,10,43,22.40
2018,06,19,10,44,22.30
2018,06,19,10,45,22.30
2018,06,19,10,46,22.40
2018,06,19,10,47,22.50
2018,06,19,10,48,22.60
2018,06,19,10,49,22.70
2018,06,19,10,50,22.80
2018,06,19,10,51,22.90
2018,06,19,10,52,22.80
2018,06,19,10,53,22.80
2018,06,19,10,54,22.70
2018,06,19,10,55,22.70
2018,06,19,10,56,22.70
2018,06,19,10,57,22.80
2018,06,19,10,58,22.80
2018,06,19,10,59,22.90
2018,06,19,11,00,22.90
2018,06,19,11,01,22.80
2018,06,19,11,02,22.90
2018,06,19,11,03,23.00
2018,06,19,11,04,23.10
2018,06,19,11,05,23.00
2018,06,19,11,06,23.00
2018,06,19,11,07,22.90
2018,06,19,11,08,22.90
2018,06,19,11,09,22.80
2018,06,19,11,10,22.80
2018,06,19,11,11,22.80
2018,06,19,11,12,22.90
2018,06,19,11,13,23.00
2018,06,19,11,14,23.00
2018,06,19,11,15,23.10
2018,06,19,11,16,23.10
2018,06,19,11,17,23.00
2018,06,19,11,18,22.90
2018,06,19,11,19,22.80
2018,06,19,11,20,22.70
2018,06,19,11,21,22.60
2018,06,19,11,22,22.60
2018,06,19,11,23,22.60
2018,06,19,11,24,22.70
2018,06,19,11,25,22.70
2018,06,19,11,26,22.70
2018,06,19,11,27,22.70
2018,06,19,11,28,22.60
2018,06,19,11,29,22.60
2018,06,19,11,30,22.50
2018,06,19,11,31,22.50
2018,06,19,11,32,22.50
2018,06,19,11,33,22.50
2018,06,19,11,34,22.60
2018,06,19,11,35,22.60
2018,06,19,11,36,22.70
2018,06,19,11,37,22.90
2018,06,19,11,38,23.00
2018,06,19,11,39,23.10
2018,06,19,11,40,23.20
2018,06,19,11,41,23.20
2018,06,19,11,42,23.30
2018,06,19,11,43,23.40
2018,06,19,11,44,23.50
2018,06,19,11,45,23.50
2018,06,19,11,46,23.50
2018,06,19,11,47,23.60
2018,06,19,11,48,23.60
2018,06,19,11,49,23.70
2018,06,19,11,50,23.80
2018,06,19,11,51,23.80
2018,06,19,11,52,23.90
2018,06,19,11,53,24.00
2018,06,19,11,54,24.10
2018,06,19,11,55,24.30
2018,06,19,11,56,24.30
2018,06,19,11,57,24.30
2018,06,19,11,58,24.30
2018,06,19,11,59,24.20
2018,06,19,12,00,24.10
2018,06,19,12,01,24.00
2018,06,19,12,02,24.00
2018,06,19,12,03,24.10
2018,06,19,12,04,24.10
2018,06,19,12,05,24.10
2018,06,19,12,06,24.00
2018,06,19,12,07,24.00
2018,06,19,12,08,24.00
2018,06,19,12,09,24.10
2018,06,19,12,10,24.10
2018,06,19,12,11,24.10
2018,06,19,12,12,24.00
2018,06,19,12,13,24.10
2018,06,19,12,14,24.00
2018,06,19,12,15,23.90
2018,06,19,12,16,23.90
2018,06,19,12,17,23.80
2018,06,19,12,18,23.70
2018,06,19,12,19,23.70
2018,06,19,12,20,23.60
2018,06,19,12,21,23.50
2018,06,19,12,22,23.50
2018,06,19,12,23,23.40
2018,06,19,12,24,23.30
2018,06,19,12,25,23.20
2018,06,19,12,26,23.20
2018,06,19,12,27,23.20
2018,06,19,12,28,23.30
2018,06,19,12,29,23.30
2018,06,19,12,30,23.40
2018,06,19,12,31,23.50
2018,06,19,12,32,23.60
2018,06,19,12,33,23.60
2018,06,19,12,34,23.50
2018,06,19,12,35,23.40
2018,06,19,12,36,23.30
2018,06,19,12,37,23.20
2018,06,19,12,38,23.20
2018,06,19,12,39,23.20
2018,06,19,12,40,23.30
2018,06,19,12,41,23.50
2018,06,19,12,42,23.60
2018,06,19,12,43,23.70
2018,06,19,12,44,23.90
2018,06,19,12,45,23.90
2018,06,19,12,46,24.10
2018,06,19,12,47,24.20
2018,06,19,12,48,24.20
2018,06,19,12,49,24.30
2018,06,19,12,50,24.20
2018,06,19,12,51,24.10
2018,06,19,12,52,24.00
2018,06,19,12,53,23.90
2018,06,19,12,54,23.80
2018,06,19,12,55,23.80
2018,06,19,12,56,23.80
2018,06,19,12,57,23.90
2018,06,19,12,58,24.00
2018,06,19,12,59,24.10
2018,06,19,13,00,24.10
2018,06,19,13,01,24.20
2018,06,19,13,02,24.20
2018,06,19,13,03,24.30
2018,06,19,13,04,24.30
2018,06,19,13,05,24.20
2018,06,19,13,06,24.20
2018,06,19,13,07,24.30
2018,06,19,13,08,24.40
2018,06,19,13,09,24.60
2018,06,19,13,10,24.70
2018,06,19,13,11,24.90
2018,06,19,13,12,25.00
2018,06,19,13,13,25.00
2018,06,19,13,14,24.90
2018,06,19,13,15,24.80
2018,06,19,13,16,24.80
2018,06,19,13,17,24.80
2018,06,19,13,18,24.70
2018,06,19,13,19,24.70
2018,06,19,13,20,24.80
2018,06,19,13,21,24.80
2018,06,19,13,22,24.80
2018,06,19,13,23,24.90
2018,06,19,13,24,24.90
2018,06,19,13,25,24.80
2018,06,19,13,26,24.80
2018,06,19,13,27,24.80
2018,06,19,13,28,24.80
2018,06,19,13,29,24.80
2018,06,19,13,30,24.80
2018,06,19,13,31,24.70
2018,06,19,13,32,24.60
2018,06,19,13,33,24.60
2018,06,19,13,34,24.70
2018,06,19,13,35,24.80
2018,06,19,13,36,24.90
2018,06,19,13,37,25.00
2018,06,19,13,38,25.00
2018,06,19,13,39,25.00
2018,06,19,13,40,25.10
2018,06,19,13,41,25.10
2018,06,19,13,42,25.10
2018,06,19,13,43,25.20
2018,06,19,13,44,25.30
2018,06,19,13,45,25.50
2018,06,19,13,46,25.70
2018,06,19,13,47,25.90
2018,06,19,13,48,26.00
2018,06,19,13,49,26.10
2018,06,19,13,50,26.10
2018,06,19,13,51,26.00
2018,06,19,13,52,25.90
2018,06,19,13,53,25.80
2018,06,19,13,54,25.70
2018,06,19,13,55,25.60
2018,06,19,13,56,25.60
2018,06,19,13,57,25.70
2018,06,19,13,58,25.60
2018,06,19,13,59,25.60
2018,06,19,14,00,25.60
2018,06,19,14,01,25.70
2018,06,19,14,02,25.60
2018,06,19,14,03,25.60
2018,06,19,14,04,25.50
2018,06,19,14,05,25.50
2018,06,19,14,06,25.40
2018,06,19,14,07,25.40
2018,06,19,14,08,25.60
2018,06,19,14,09,25.60
2018,06,19,14,10,25.70
2018,06,19,14,11,25.70
2018,06,19,14,12,25.70
2018,06,19,14,13,25.70
2018,06,19,14,14,25.70
2018,06,19,14,15,25.90
2018,06,19,14,16,25.90
2018,06,19,14,17,26.00
2018,06,19,14,18,26.00
2018,06,19,14,19,26.10
2018,06,19,14,20,26.10
2018,06,19,14,21,26.20
2018,06,19,14,22,26.30
2018,06,19,14,23,26.30
2018,06,19,14,24,26.40
2018,06,19,14,25,26.40
2018,06,19,14,26,26.50
2018,06,19,14,27,26.50
2018,06,19,14,28,26.60
2018,06,19,14,29,26.60
2018,06,19,14,30,26.50
2018,06,19,14,31,26.60
2018,06,19,14,32,26.70
2018,06,19,14,33,26.80
2018,06,19,14,34,26.90
2018,06,19,14,35,26.90
2018,06,19,14,36,26.90
2018,06,19,14,37,27.00
2018,06,19,14,38,27.00
2018,06,19,14,39,27.00
2018,06,19,14,40,27.00
2018,06,19,14,41,27.00
2018,06,19,14,42,27.00
2018,06,19,14,43,27.10
2018,06,19,14,44,27.20
2018,06,19,14,45,27.30
2018,06,19,14,46,27.20
2018,06,19,14,47,27.30
2018,06,19,14,48,27.30
2018,06,19,14,49,27.30
2018,06,19,14,50,27.30
2018,06,19,14,51,27.20
2018,06,19,14,52,27.20
2018,06,19,14,53,27.10
2018,06,19,14,54,27.20
2018,06,19,14,55,27.20
2018,06,19,14,56,27.20
2018,06,19,14,57,27.20
2018,06,19,14,58,27.10
2018,06,19,14,59,27.10
2018,06,19,15,00,27.20
2018,06,19,15,01,27.20
2018,06,19,15,02,27.20
2018,06,19,15,03,27.20
2018,06,19,15,04,27.20
2018,06,19,15,05,27.20
2018,06,19,15,06,27.20
2018,06,19,15,07,27.20
2018,06,19,15,08,27.30
2018,06,19,15,09,27.50
2018,06,19,15,10,27.60
2018,06,19,15,11,27.70
2018,06,19,15,12,27.80
2018,06,19,15,13,27.80
2018,06,19,15,14,27.70
2018,06,19,15,15,27.70
2018,06,19,15,16,27.70
2018,06,19,15,17,27.70
2018,06,19,15,18,27.80
2018,06,19,15,19,27.90
2018,06,19,15,20,27.90
2018,06,19,15,21,28.00
2018,06,19,15,22,28.10
2018,06,19,15,23,28.10
2018,06,19,15,24,28.10
2018,06,19,15,25,28.10
2018,06,19,15,26,28.10
2018,06,19,15,27,28.10
2018,06,19,15,28,28.00
2018,06,19,15,29,28.00
2018,06,19,15,30,28.00
2018,06,19,15,31,28.10
2018,06,19,15,32,28.10
2018,06,19,15,33,28.20
2018,06,19,15,34,28.20
2018,06,19,15,35,28.20
2018,06,19,15,36,28.10
2018,06,19,15,37,28.10
2018,06,19,15,38,28.20
2018,06,19,15,39,28.40
2018,06,19,15,40,28.50
2018,06,19,15,41,28.60
2018,06,19,15,42,28.70
2018,06,19,15,43,28.60
2018,06,19,15,44,28.60
2018,06,19,15,45,28.50
2018,06,19,15,46,28.30
2018,06,19,15,47,28.20
2018,06,19,15,48,28.20
2018,06,19,15,49,28.20
2018,06,19,15,50,28.20
2018,06,19,15,51,28.30
2018,06,19,15,52,28.30
2018,06,19,15,53,28.30
2018,06,19,15,54,28.30
2018,06,19,15,55,28.20
2018,06,19,15,56,28.10
2018,06,19,15,57,28.00
2018,06,19,15,58,28.10
2018,06,19,15,59,28.10
2018,06,19,16,00,28.10
2018,06,19,16,01,28.10
2018,06,19,16,02,28.00
2018,06,19,16,03,27.70
2018,06,19,16,04,27.60
2018,06,19,16,05,27.50
2018,06,19,16,06,27.50
2018,06,19,16,07,27.60
2018,06,19,16,08,27.60
2018,06,19,16,09,27.70
2018,06,19,16,10,27.80
2018,06,19,16,11,27.80
2018,06,19,16,12,27.90
2018,06,19,16,13,28.00
2018,06,19,16,14,28.20
2018,06,19,16,15,28.40
2018,06,19,16,16,28.60
2018,06,19,16,17,28.70
2018,06,19,16,18,28.90
2018,06,19,16,19,29.00
2018,06,19,16,20,29.10
2018,06,19,16,21,29.20
2018,06,19,16,22,29.20
2018,06,19,16,23,29.10
2018,06,19,16,24,29.10
2018,06,19,16,25,29.00
2018,06,19,16,26,29.10
2018,06,19,16,27,29.10
2018,06,19,16,28,29.10
2018,06,19,16,29,29.20
2018,06,19,16,30,29.20
2018,06,19,16,31,29.30
2018,06,19,16,32,29.30
2018,06,19,16,33,29.30
2018,06,19,16,34,29.30
2018,06,19,16,35,29.20
2018,06,19,16,36,29.10
2018,06,19,16,37,29.00
2018,06,19,16,38,28.90
2018,06,19,16,39,28.80
2018,06,19,16,40,28.70
2018,06,19,16,41,28.60
2018,06,19,16,42,28.60
2018,06,19,16,43,28.60
2018,06,19,16,44,28.60
2018,06,19,16,45,28.60
2018,06,19,16,46,28.60
2018,06,19,16,47,28.50
2018,06,19,16,48,28.60
2018,06,19,16,49,28.60
2018,06,19,16,50,28.60
2018,06,19,16,51,28.60
2018,06,19,16,52,28.60
2018,06,19,16,53,28.50
2018,06,19,16,54,28.50
2018,06,19,16,55,28.50
2018,06,19,16,56,28.50
2018,06,19,16,57,28.40
2018,06,19,16,58,28.40
2018,06,19,16,59,28.40
2018,06,19,17,00,28.30
2018,06,19,17,01,28.20
2018,06,19,17,02,28.10
2018,06,19,17,03,28.10
2018,06,19,17,04,28.10
2018,06,19,17,05,28.10
2018,06,19,17,06,28.20
2018,06,19,17,07,28.10
2018,06,19,17,08,27.90
2018,06,19,17,09,27.70
2018,06,19,17,10,27.60
2018,06,19,17,11,27.40
2018,06,19,17,12,27.30
2018,06,19,17,13,27.20
2018,06,19,17,14,27.10
2018,06,19,17,15,27.00
2018,06,19,17,16,26.90
2018,06,19,17,17,26.90
2018,06,19,17,18,26.90
2018,06,19,17,19,26.90